星链-1059 (STARLINK-1059 )

导读 | 星芒AI

STARLINK-1059 是 SpaceX Starlink 卫星互联网项目中的一颗低轨通信卫星。它属于 Starlink 任务的第 24 批部署卫星,于 2022 年 3 月 30 日由猎鹰 9 号火箭从佛罗里达州卡纳维拉尔角发射升空。该卫星运行在约 550 公里的近地轨道,旨在为全球用户提供高速、低延迟的互联网服务。STARLINK-1059 采用先进的推进和通信技术,支持 Starlink 网络的扩展与优化。

基本信息
目录编号:
44764
目录名称:
STARLINK-1059
国际标识:
2019-074BD
轨道中心:
EARTH
卫星名称:
星链-1059
卫星全名:
星链-1059 (STARLINK-1059 )
卫星状态:
已陨落 最后检测时间 2024-12-08
发射日期:
2019-11-11 UTC
国别 :
美国 (US)
星等 :
--
轨道信息
数据来源 国际轨道数据
星历时间: 2024-12-08T16:47:59+0800
轨道信息已过期378天
半长轴: 6521.482km
偏心率: 0.0003026
轨道倾角: 53.045°
近地点辐角 191.517°
升交点赤经 313.393°
平近点角 286.905°
近地点: 141.373km
远地点: 145.321km
周期: 87.353分钟
每日圈数: 16.484787
详细信息
固有亮度:
5
最大亮度:
2.5
卫星平台:
Starlink V1.0
覆盖范围:
全球
运营商:
太空探索技术公司
运营商所在国:
美国
制造商(研发单位):
太空探索技术公司
制造商所在国:
美国
使用方式:
暂无
卫星简介
星链(Starlink)计划是由太空探索技术公司(SpaceX)提出的一个巨型低轨卫星互联网星座项目,计划在2019年至2024年间在太空搭建由约1.2万颗卫星组成的“星链”网络,其中1584颗将部署在地球上空550千米处的近地轨道,并从2020年开始工作。该卫星仍在工作。